Location: Gunnison Valley Observatory
(38.5087°N, 106.9386°W)
Time: 16:11:05
(UTC-06:00)

Amateur Radio Satellites - All Passes

Search period start: 23 July 2014 15:41
Search period end: 24 July 2014 15:41
Location: Gunnison Valley Observatory, 38.5087°N, 106.9386°W

Satellite Date Start Highest point End Downlink Frequencies (MHz)
Time Altitude Azimuth
UOSAT-12 23 Jul 15:44:11 15:48:23 37° 114° (ESE) 15:52:40 437.025 FM, 437.400 FM
JAS-1B 23 Jul 15:46:30 15:54:36 56° 262° (W) 16:04:00 435.800 - 435.900 CW/SSB
ITAMSAT 1 23 Jul 15:54:59 15:58:00 16° 268° (W) 16:01:03 435.822 SSB
AO-7 23 Jul 15:58:17 16:06:18 54° 65° (ENE) 16:14:21 29.400 - 29.500 MHz
Gurwin Techsat 1B 23 Jul 15:58:50 16:03:40 35° 263° (W) 16:08:31 435.225 FM
Uosat F 23 Jul 16:33:49 16:38:52 87° 76° (ENE) 16:43:57 435.120 FM
RS-15 23 Jul 16:43:44 16:53:51 39° 317° (NW) 17:03:55 29.354 - 29.394 USB, Beacon 29.352 USB
OPAL 23 Jul 17:05:35 17:10:36 65° 104° (ESE) 17:15:40 ?
JAS-2 23 Jul 17:13:20 17:19:12 24° 62° (ENE) 17:24:53 435.800 - 435.900 CW/SSB, 435.910 FM
KITSAT 1 23 Jul 17:20:55 17:29:01 81° 243° (WSW) 17:37:03 435.175 FM
UOSAT-12 23 Jul 17:24:47 17:28:37 25° 312° (NW) 17:32:31 437.025 FM, 437.400 FM
AO-7 23 Jul 17:52:02 17:59:18 33° 263° (W) 18:06:38 29.400 - 29.500 MHz
Hamsat 23 Jul 18:03:36 18:07:37 49° 74° (ENE) 18:11:40 145.90 MHz
Saudisat 1A 23 Jul 18:14:22 18:18:43 58° 56° (NE) 18:23:02 436.775 MHz
OPAL 23 Jul 18:46:08 18:48:57 15° 300° (WNW) 18:51:47 ?
JAS-2 23 Jul 18:55:40 19:03:31 74° 258° (WSW) 19:11:09 435.800 - 435.900 CW/SSB, 435.910 FM
RS-15 23 Jul 19:04:09 19:10:37 17° 350° (N) 19:17:07 29.354 - 29.394 USB, Beacon 29.352 USB
STRAND 1 23 Jul 19:19:19 19:23:56 33° 97° (E) 19:28:30 ?
KITSAT 1 23 Jul 19:19:26 19:23:08 14° 261° (W) 19:26:49 435.175 FM
SO-67 23 Jul 19:23:04 19:26:28 59° 76° (ENE) 19:29:54 435.3500 MHz FM
HO-68 23 Jul 19:23:26 19:26:06 12° 52° (NE) 19:28:46 435.675 MHz FM
Hamsat 23 Jul 19:42:11 19:43:52 12° 269° (W) 19:45:33 145.90 MHz
Saudisat 1A 23 Jul 19:55:45 19:57:48 13° 252° (WSW) 19:59:50 436.775 MHz
JAS-2 23 Jul 20:46:28 20:49:27 12° 273° (W) 20:52:25 435.800 - 435.900 CW/SSB, 435.910 FM
Oscar 11 23 Jul 20:47:21 20:47:56 10° 63° (ENE) 20:48:30 145.825 FM, Beacon 2401.500 USB
STRAND 1 23 Jul 20:58:43 21:02:58 27° 293° (WNW) 21:07:11 ?
HO-68 23 Jul 21:05:24 21:12:30 68° 71° (ENE) 21:19:37 435.675 MHz FM
RS-15 23 Jul 21:20:45 21:28:55 23° 27° (NNE) 21:37:11 29.354 - 29.394 USB, Beacon 29.352 USB
UKube-1 23 Jul 21:27:36 21:31:55 66° 74° (ENE) 21:36:17 145.840 MHz, 145.915 MHz
SO-50 23 Jul 21:43:38 21:45:50 13° 41° (NE) 21:48:04 436.795 FM
MaSat-1 23 Jul 21:48:20 21:50:11 13° 99° (E) 21:52:10 437.345 MHz
Oscar 11 23 Jul 22:19:13 22:23:30 70° 259° (WSW) 22:27:49 145.825 FM, Beacon 2401.500 USB
FUNcube-1 23 Jul 22:24:41 22:28:54 46° 73° (ENE) 22:33:02 145.950 - 145.970 MHz USB
HO-68 23 Jul 22:55:36 23:00:42 21° 267° (W) 23:05:50 435.675 MHz FM
SO-50 23 Jul 23:22:19 23:27:06 86° 59° (ENE) 23:31:56 436.795 FM
MaSat-1 23 Jul 23:23:08 23:26:51 45° 300° (WNW) 23:31:13 437.345 MHz
RS-15 23 Jul 23:32:54 23:43:54 66° 55° (NE) 23:55:16 29.354 - 29.394 USB, Beacon 29.352 USB
FUNcube-1 24 Jul 00:03:09 00:05:30 14° 268° (W) 00:07:49 145.950 - 145.970 MHz USB
UOSAT-12 24 Jul 00:15:13 00:19:07 25° 48° (NE) 00:22:58 437.025 FM, 437.400 FM
AO-40 24 Jul 00:25:03 06:41:33 43° 179° (S) 09:17:09 Beacon 2401.320
Lituanica SAT-1 24 Jul 00:46:39 00:48:39 35° 325° (NW) 00:50:40 437.275 MHz beacon
ISS 24 Jul 00:53:13 00:55:44 20° 131° (SE) 00:58:16 145.800 FM
Sapphire 24 Jul 01:14:34 01:18:23 20° 105° (ESE) 01:22:13 437.095 MHz 1200 baud AX-25 AFSK
RS-15 24 Jul 01:46:07 01:55:30 33° 254° (WSW) 02:05:14 29.354 - 29.394 USB, Beacon 29.352 USB
PCSat 24 Jul 01:47:03 01:52:08 43° 111° (ESE) 01:57:14 145.825 MHz
Oscar 19 24 Jul 01:51:31 01:55:35 23° 95° (E) 01:59:38 437.125 CW, 437.150 USB
UOSAT-12 24 Jul 01:55:00 01:59:24 39° 245° (WSW) 02:03:43 437.025 FM, 437.400 FM
Oscar 16 24 Jul 02:18:15 02:23:11 44° 99° (E) 02:28:06 437.025 USB, Beacon 2401.1428
ITAMSAT 1 24 Jul 02:28:10 02:32:16 23° 95° (E) 02:36:20 435.822 SSB
ISS 24 Jul 02:29:04 02:32:15 40° 327° (NNW) 02:35:28 145.800 FM
Gurwin Techsat 1B 24 Jul 02:39:08 02:40:44 11° 89° (E) 02:42:19 435.225 FM
OPAL 24 Jul 02:44:28 02:46:07 12° 58° (ENE) 02:47:46 ?
AO-27 24 Jul 02:45:24 02:50:09 35° 98° (E) 02:54:50 436.795 MHz FM
Uribyol 2 24 Jul 02:48:30 02:53:20 39° 98° (E) 02:58:08 436.500 FM
AO-Echo 24 Jul 02:51:10 02:56:01 41° 98° (E) 03:00:41 ?
Sapphire 24 Jul 02:56:07 03:01:22 52° 302° (WNW) 03:06:40 437.095 MHz 1200 baud AX-25 AFSK
Oscar 19 24 Jul 03:30:15 03:35:01 39° 290° (WNW) 03:39:47 437.125 CW, 437.150 USB
PCSat 24 Jul 03:31:10 03:35:41 27° 309° (NW) 03:40:14 145.825 MHz
JAS-1B 24 Jul 03:34:24 03:43:55 62° 99° (E) 03:52:06 435.800 - 435.900 CW/SSB
TMSAT-1 24 Jul 03:55:15 04:00:22 48° 99° (E) 04:05:27 436.925 FM
Oscar 16 24 Jul 03:58:23 04:02:12 21° 295° (WNW) 04:06:02 437.025 USB, Beacon 2401.1428
AO-7 24 Jul 04:03:25 04:08:26 17° 91° (E) 04:13:25 29.400 - 29.500 MHz
ITAMSAT 1 24 Jul 04:07:04 04:11:51 39° 290° (WNW) 04:16:36 435.822 SSB
ISS 24 Jul 04:08:24 04:09:42 12° 345° (NNW) 04:11:01 145.800 FM
Gurwin Techsat 1B 24 Jul 04:15:56 04:21:16 79° 285° (WNW) 04:26:33 435.225 FM
OPAL 24 Jul 04:19:20 04:24:18 82° 255° (WSW) 04:29:16 ?
AO-27 24 Jul 04:25:12 04:29:29 27° 293° (WNW) 04:33:44 436.795 MHz FM
Uribyol 2 24 Jul 04:28:31 04:32:34 24° 294° (WNW) 04:36:36 436.500 FM
AO-Echo 24 Jul 04:30:35 04:34:28 22° 295° (WNW) 04:38:16 ?
Uosat F 24 Jul 04:43:31 04:47:54 30° 97° (E) 04:52:15 435.120 FM
Oscar 10/S400 24 Jul 05:22:52 06:43:18 46° 233° (SW) 12:17:57 145.825 - 145.975 CW/USB, Beacon 145.810 USB
JAS-1B 24 Jul 05:25:29 05:33:41 34° 300° (WNW) 05:41:06 435.800 - 435.900 CW/SSB
TMSAT-1 24 Jul 05:36:04 05:39:55 21° 295° (WNW) 05:43:45 436.925 FM
AO-7 24 Jul 05:53:46 06:02:09 88° 288° (WNW) 06:10:27 29.400 - 29.500 MHz
KITSAT 1 24 Jul 05:56:09 06:00:39 16° 100° (E) 06:05:09 435.175 FM
JAS-2 24 Jul 06:10:34 06:13:52 15° 87° (E) 06:16:59 435.800 - 435.900 CW/SSB, 435.910 FM
Uosat F 24 Jul 06:22:18 06:26:36 29° 292° (WNW) 06:30:53 435.120 FM
STRAND 1 24 Jul 06:33:45 06:38:35 43° 71° (ENE) 06:43:26 ?
Lituanica SAT-1 24 Jul 07:00:40 07:02:49 77° 42° (NE) 07:04:57 437.275 MHz beacon
ISS 24 Jul 07:22:45 07:25:26 22° 26° (NNE) 07:28:07 145.800 FM
Hamsat 24 Jul 07:26:21 07:30:36 64° 285° (WNW) 07:34:51 145.90 MHz
PANSAT 24 Jul 07:29:44 07:31:23 12° 166° (SSE) 07:33:02 not established
MaSat-1 24 Jul 07:42:38 07:47:27 33° 57° (ENE) 07:52:06 437.345 MHz
KITSAT 1 24 Jul 07:46:47 07:54:54 88° 118° (ESE) 08:03:03 435.175 FM
AO-7 24 Jul 07:48:19 07:53:48 20° 307° (NW) 07:59:16 29.400 - 29.500 MHz
JAS-2 24 Jul 07:53:33 07:59:43 66° 287° (WNW) 08:05:10 435.800 - 435.900 CW/SSB, 435.910 FM
STRAND 1 24 Jul 08:14:05 08:17:55 21° 266° (W) 08:21:47 ?
Saudisat 1A 24 Jul 08:20:29 08:23:48 21° 111° (ESE) 08:27:08 436.775 MHz
SO-67 24 Jul 08:21:17 08:24:47 89° 281° (WNW) 08:28:15 435.3500 MHz FM
HO-68 24 Jul 08:38:14 08:40:39 12° 89° (E) 08:43:03 435.675 MHz FM
ISS 24 Jul 08:59:04 09:02:21 51° 223° (SW) 09:05:36 145.800 FM
PANSAT 24 Jul 09:08:14 09:10:55 18° 178° (S) 09:13:37 not established
UKube-1 24 Jul 09:19:24 09:21:15 12° 92° (E) 09:23:06 145.840 MHz, 145.915 MHz
MaSat-1 24 Jul 09:20:05 09:24:46 32° 255° (WSW) 09:29:12 437.345 MHz
KITSAT 1 24 Jul 09:45:07 09:51:21 24° 319° (NW) 09:57:37 435.175 FM
Saudisat 1A 24 Jul 09:59:01 10:03:08 37° 307° (NW) 10:07:17 436.775 MHz
Sapphire 24 Jul 10:03:36 10:06:37 15° 44° (NE) 10:09:38 437.095 MHz 1200 baud AX-25 AFSK
Oscar 11 24 Jul 10:08:54 10:12:22 23° 95° (E) 10:15:49 145.825 FM, Beacon 2401.500 USB
HO-68 24 Jul 10:22:07 10:29:19 81° 105° (ESE) 10:36:27 435.675 MHz FM
PCSat 24 Jul 10:36:33 10:41:09 27° 52° (NE) 10:45:44 145.825 MHz
PANSAT 24 Jul 10:48:20 10:50:29 14° 191° (SSW) 10:52:38 not established
UKube-1 24 Jul 10:53:31 10:57:46 52° 287° (WNW) 11:01:58 145.840 MHz, 145.915 MHz
Oscar 11 24 Jul 11:44:49 11:48:31 28° 290° (WNW) 11:52:12 145.825 FM, Beacon 2401.500 USB
Sapphire 24 Jul 11:45:21 11:50:48 89° 242° (WSW) 11:56:13 437.095 MHz 1200 baud AX-25 AFSK
FUNcube-1 24 Jul 11:51:25 11:55:32 65° 285° (WNW) 11:59:40 145.950 - 145.970 MHz USB
HO-68 24 Jul 12:11:27 12:16:10 19° 303° (WNW) 12:20:53 435.675 MHz FM
PCSat 24 Jul 12:19:37 12:24:41 42° 249° (WSW) 12:29:44 145.825 MHz
JAS-1B 24 Jul 12:33:57 12:35:35 11° 44° (NE) 12:37:14 435.800 - 435.900 CW/SSB
Oscar 19 24 Jul 13:07:06 13:11:27 29° 68° (ENE) 13:15:49 437.125 CW, 437.150 USB
Sapphire 24 Jul 13:32:58 13:33:22 10° 259° (WSW) 13:33:45 437.095 MHz 1200 baud AX-25 AFSK
Oscar 16 24 Jul 13:33:49 13:38:48 56° 73° (ENE) 13:43:48 437.025 USB, Beacon 2401.1428
SO-50 24 Jul 13:36:18 13:40:24 38° 115° (ESE) 13:44:36 436.795 FM
ITAMSAT 1 24 Jul 13:44:42 13:49:15 32° 68° (ENE) 13:53:50 435.822 SSB
KITSAT 1 24 Jul 13:49:27 13:50:56 11° 21° (NNE) 13:52:25 435.175 FM
RS-15 24 Jul 13:54:40 14:05:10 48° 110° (ESE) 14:15:23 29.354 - 29.394 USB, Beacon 29.352 USB
Gurwin Techsat 1B 24 Jul 13:58:04 14:01:29 18° 63° (ENE) 14:04:53 435.225 FM
AO-27 24 Jul 14:02:03 14:07:02 47° 71° (ENE) 14:12:01 436.795 MHz FM
AO-Echo 24 Jul 14:02:08 14:07:09 47° 71° (ENE) 14:12:15 ?
Uribyol 2 24 Jul 14:04:53 14:09:56 52° 72° (ENE) 14:14:58 436.500 FM
JAS-1B 24 Jul 14:15:24 14:23:27 47° 65° (ENE) 14:32:30 435.800 - 435.900 CW/SSB
Oscar 19 24 Jul 14:46:13 14:50:42 31° 263° (W) 14:55:12 437.125 CW, 437.150 USB
AO-7 24 Jul 15:00:56 15:07:10 24° 55° (NE) 15:13:25 29.400 - 29.500 MHz
TMSAT-1 24 Jul 15:14:31 15:19:45 65° 74° (ENE) 15:25:01 436.925 FM
Oscar 16 24 Jul 15:15:27 15:18:29 16° 268° (W) 15:21:32 437.025 USB, Beacon 2401.1428
SO-50 24 Jul 15:17:28 15:21:05 23° 312° (NW) 15:24:45 436.795 FM
ITAMSAT 1 24 Jul 15:24:10 15:28:41 29° 264° (W) 15:33:14 435.822 SSB
